Precipitable_Water
2.19 2.22 2.35 2.42 2.38 2.32 2.29 2.20 2.18 2.17 2.14 2.11 2.07 2.03 1.95 1.90 1.90 1.89 1.89 1.89 1.91 1.94 1.91 1.87 1.83 1.78 1.75 1.72 1.69 1.69 1.64 1.59 1.55 1.56 1.60 1.64 1.65 1.61 1.56 1.54 1.52 1.48 1.43 1.41 1.39 1.39 1.42 1.43 1.47 1.51 1.57 1.60 1.58 1.59 1.64 1.69 1.71 1.74 1.76 1.78 1.82 1.79 1.78 1.78 1.68 1.75 1.66 1.60 1.51 1.55 1.60 1.59 1.50 1.54 1.49 1.41 1.35 1.26 1.22 1.19 1.14 1.24 1.31 1.43 1.52
2.10 2.18 2.22 2.26 2.30 2.28 2.24 2.16 2.13 2.14 2.06 1.98 1.98 2.01 1.95 1.88 1.89 1.89 1.88 1.91 1.90 1.89 1.88 1.87 1.83 1.76 1.74 1.71 1.68 1.68 1.64 1.59 1.55 1.56 1.57 1.54 1.49 1.44 1.44 1.43 1.39 1.38 1.39 1.38 1.41 1.45 1.47 1.50 1.53 1.55 1.60 1.59 1.59 1.60 1.66 1.71 1.72 1.72 1.74 1.78 1.79 1.81 1.78 1.74 1.70 1.70 1.64 1.55 1.54 1.52 1.52 1.53 1.55 1.48 1.43 1.36 1.32 1.25 1.26 1.35 1.35 1.36 1.41 1.53 1.64
2.15 2.14 2.15 2.19 2.24 2.27 2.25 2.14 2.09 2.09 1.99 1.91 1.89 1.90 1.94 1.92 1.89 1.86 1.86 1.90 1.88 1.85 1.85 1.84 1.83 1.79 1.77 1.72 1.72 1.71 1.65 1.60 1.57 1.54 1.48 1.41 1.35 1.34 1.34 1.34 1.37 1.37 1.38 1.38 1.42 1.48 1.50 1.50 1.52 1.56 1.60 1.63 1.63 1.64 1.67 1.68 1.69 1.74 1.80 1.79 1.78 1.81 1.83 1.80 1.76 1.72 1.66 1.63 1.65 1.49 1.42 1.43 1.47 1.46 1.40 1.32 1.32 1.39 1.42 1.45 1.44 1.44 1.49 1.56 1.62
2.09 2.11 2.15 2.17 2.20 2.24 2.22 2.13 2.08 2.06 1.96 1.88 1.85 1.85 1.86 1.86 1.85 1.87 1.88 1.87 1.85 1.84 1.84 1.82 1.81 1.79 1.79 1.77 1.76 1.71 1.64 1.59 1.53 1.46 1.41 1.37 1.34 1.33 1.33 1.34 1.36 1.39 1.37 1.37 1.44 1.47 1.48 1.47 1.51 1.57 1.63 1.67 1.69 1.70 1.71 1.70 1.71 1.76 1.86 1.87 1.83 1.81 1.80 1.82 1.81 1.76 1.74 1.65 1.60 1.44 1.35 1.30 1.41 1.48 1.42 1.37 1.39 1.45 1.49 1.51 1.50 1.50 1.58 1.60 1.61
2.08 2.11 2.13 2.14 2.17 2.13 2.09 2.09 2.05 2.00 1.92 1.86 1.87 1.90 1.87 1.87 1.87 1.86 1.89 1.85 1.84 1.85 1.87 1.84 1.82 1.80 1.80 1.79 1.74 1.70 1.64 1.58 1.52 1.45 1.42 1.40 1.38 1.36 1.36 1.36 1.40 1.42 1.43 1.44 1.45 1.47 1.47 1.48 1.56 1.63 1.66 1.67 1.71 1.73 1.72 1.68 1.68 1.73 1.78 1.88 1.85 1.83 1.82 1.82 1.79 1.79 1.71 1.65 1.59 1.49 1.37 1.30 1.35 1.51 1.51 1.43 1.42 1.45 1.49 1.49 1.52 1.56 1.58 1.63 1.68
2.05 2.06 2.06 2.09 2.11 2.10 2.03 2.06 2.06 1.99 1.91 1.87 1.84 1.83 1.84 1.87 1.91 1.87 1.86 1.86 1.85 1.86 1.87 1.84 1.78 1.75 1.74 1.73 1.71 1.68 1.65 1.62 1.56 1.50 1.46 1.44 1.41 1.38 1.39 1.41 1.44 1.48 1.49 1.48 1.49 1.48 1.46 1.52 1.58 1.64 1.70 1.71 1.79 1.77 1.76 1.77 1.73 1.72 1.78 1.86 1.90 1.88 1.86 1.84 1.84 1.84 1.80 1.70 1.62 1.53 1.43 1.35 1.34 1.43 1.51 1.51 1.48 1.47 1.48 1.48 1.52 1.56 1.57 1.62 1.64
2.06 2.05 2.04 2.08 2.09 2.08 2.00 2.02 2.04 1.99 1.90 1.88 1.84 1.79 1.79 1.82 1.90 1.89 1.89 1.89 1.87 1.86 1.86 1.83 1.79 1.75 1.73 1.72 1.72 1.69 1.68 1.66 1.62 1.57 1.52 1.48 1.46 1.43 1.44 1.46 1.50 1.51 1.49 1.50 1.53 1.53 1.54 1.56 1.59 1.65 1.74 1.75 1.77 1.78 1.78 1.80 1.77 1.79 1.77 1.84 1.92 1.91 1.91 1.88 1.87 1.88 1.89 1.74 1.65 1.58 1.48 1.42 1.41 1.42 1.48 1.51 1.48 1.49 1.49 1.48 1.49 1.48 1.52 1.60 1.67
2.05 2.03 2.04 2.06 2.02 2.03 1.98 2.03 2.13 1.93 1.92 1.88 1.82 1.75 1.75 1.82 1.88 1.91 1.92 1.92 1.91 1.89 1.86 1.83 1.79 1.74 1.72 1.73 1.73 1.71 1.69 1.68 1.66 1.63 1.56 1.52 1.50 1.48 1.49 1.51 1.52 1.53 1.55 1.57 1.58 1.59 1.61 1.63 1.62 1.68 1.77 1.75 1.77 1.85 1.81 1.80 1.85 1.85 1.86 1.87 1.92 1.96 1.95 1.95 1.94 1.89 1.90 1.83 1.73 1.66 1.56 1.52 1.49 1.48 1.49 1.48 1.48 1.47 1.48 1.47 1.48 1.47 1.48 1.54 1.62
1.94 2.00 1.99 1.96 1.94 1.93 1.99 2.10 2.08 2.05 2.03 1.85 1.76 1.72 1.72 1.77 1.81 1.88 1.91 1.89 1.89 1.88 1.82 1.79 1.75 1.73 1.73 1.73 1.73 1.72 1.69 1.67 1.64 1.62 1.59 1.55 1.52 1.51 1.53 1.55 1.54 1.54 1.59 1.63 1.64 1.65 1.65 1.64 1.65 1.72 1.75 1.74 1.77 1.79 1.79 1.81 1.83 1.86 1.84 1.90 1.90 1.96 2.04 2.05 1.94 1.92 1.90 1.87 1.79 1.71 1.66 1.60 1.53 1.50 1.50 1.45 1.45 1.46 1.45 1.48 1.48 1.48 1.48 1.53 1.59
1.92 1.91 1.90 1.88 1.88 1.88 2.01 2.10 2.03 2.00 1.94 1.78 1.72 1.70 1.68 1.72 1.80 1.81 1.80 1.81 1.82 1.81 1.79 1.77 1.73 1.71 1.71 1.71 1.74 1.74 1.69 1.64 1.60 1.59 1.57 1.54 1.54 1.57 1.59 1.58 1.59 1.62 1.65 1.66 1.63 1.62 1.61 1.60 1.64 1.69 1.75 1.77 1.84 1.79 1.82 1.78 1.83 1.87 1.91 1.92 1.91 1.93 1.98 1.99 1.99 1.98 1.91 1.91 1.85 1.77 1.72 1.66 1.58 1.51 1.48 1.46 1.45 1.47 1.53 1.50 1.46 1.45 1.49 1.52 1.51
1.83 1.80 1.79 1.82 1.86 1.92 1.92 1.97 1.95 1.91 1.81 1.79 1.76 1.74 1.70 1.73 1.73 1.73 1.72 1.76 1.77 1.79 1.78 1.74 1.71 1.69 1.69 1.70 1.73 1.74 1.71 1.66 1.62 1.61 1.59 1.58 1.56 1.57 1.59 1.63 1.67 1.70 1.69 1.63 1.60 1.59 1.58 1.60 1.63 1.69 1.73 1.78 1.82 1.84 1.83 1.82 1.86 1.83 1.87 1.81 1.83 1.93 1.94 1.95 2.01 1.97 1.92 1.95 1.90 1.81 1.77 1.78 1.66 1.53 1.50 1.46 1.43 1.44 1.50 1.53 1.53 1.54 1.49 1.46 1.49
1.77 1.80 1.84 1.88 1.91 1.89 1.86 1.81 1.81 1.80 1.76 1.81 1.81 1.83 1.91 1.78 1.78 1.75 1.74 1.73 1.75 1.79 1.76 1.73 1.70 1.69 1.68 1.68 1.68 1.70 1.71 1.69 1.68 1.64 1.62 1.60 1.57 1.60 1.66 1.71 1.72 1.70 1.66 1.63 1.60 1.59 1.61 1.63 1.68 1.70 1.71 1.74 1.79 1.83 1.83 1.83 1.82 1.80 1.85 1.81 1.85 1.80 1.90 1.88 1.97 1.98 1.96 1.96 1.93 1.86 1.81 1.82 1.73 1.60 1.53 1.45 1.44 1.42 1.47 1.49 1.52 1.56 1.48 1.45 1.48
1.73 1.79 1.81 1.85 1.83 1.82 1.77 1.76 1.80 1.75 1.80 1.87 1.82 1.80 1.82 1.82 1.77 1.80 1.80 1.80 1.80 1.76 1.73 1.72 1.73 1.72 1.71 1.70 1.69 1.69 1.70 1.71 1.70 1.69 1.66 1.63 1.63 1.67 1.69 1.71 1.71 1.70 1.68 1.64 1.66 1.66 1.66 1.67 1.70 1.71 1.71 1.71 1.74 1.80 1.87 1.81 1.79 1.78 1.79 1.83 1.83 1.85 1.84 1.94 1.84 1.84 1.93 1.96 1.96 1.94 1.86 1.82 1.76 1.68 1.60 1.49 1.48 1.46 1.45 1.47 1.52 1.53 1.50 1.47 1.48
1.66 1.75 1.80 1.85 1.82 1.87 1.76 1.75 1.79 1.69 1.71 1.71 1.71 1.72 1.75 1.74 1.77 1.80 1.82 1.81 1.77 1.75 1.74 1.76 1.77 1.76 1.75 1.75 1.75 1.75 1.76 1.75 1.75 1.74 1.73 1.73 1.74 1.74 1.72 1.71 1.71 1.70 1.70 1.71 1.72 1.72 1.69 1.67 1.67 1.67 1.69 1.70 1.72 1.78 1.85 1.90 1.84 1.87 1.85 1.78 1.86 1.90 1.89 1.88 1.91 1.83 1.91 1.90 2.03 1.98 1.95 1.86 1.78 1.74 1.70 1.51 1.53 1.52 1.48 1.45 1.47 1.51 1.51 1.48 1.49
1.68 1.69 1.75 1.84 1.85 1.86 1.78 1.76 1.72 1.63 1.56 1.57 1.64 1.70 1.70 1.72 1.76 1.80 1.78 1.78 1.78 1.79 1.79 1.80 1.80 1.79 1.80 1.83 1.80 1.81 1.82 1.83 1.86 1.87 1.87 1.84 1.80 1.77 1.74 1.71 1.70 1.72 1.73 1.77 1.77 1.76 1.76 1.77 1.76 1.74 1.76 1.76 1.76 1.80 1.83 1.83 1.86 1.82 1.86 1.81 1.87 1.87 1.96 1.91 1.91 1.87 1.86 1.87 2.01 2.04 1.96 1.93 1.81 1.77 1.74 1.60 1.53 1.55 1.52 1.48 1.46 1.48 1.52 1.48 1.49
1.77 1.75 1.79 1.81 1.84 1.85 1.79 1.77 1.66 1.60 1.57 1.61 1.64 1.65 1.67 1.70 1.73 1.71 1.75 1.78 1.80 1.81 1.82 1.79 1.81 1.83 1.81 1.83 1.85 1.87 1.90 1.91 1.91 1.90 1.87 1.82 1.77 1.74 1.74 1.75 1.75 1.79 1.82 1.82 1.84 1.85 1.86 1.89 1.88 1.86 1.85 1.83 1.80 1.79 1.79 1.81 1.94 1.87 1.76 1.74 1.87 1.85 1.93 1.97 1.92 1.88 1.72 1.76 1.95 2.00 2.01 1.94 1.84 1.75 1.72 1.64 1.51 1.54 1.55 1.52 1.46 1.45 1.46 1.47 1.48
1.79 1.80 1.74 1.74 1.74 1.75 1.80 1.80 1.73 1.68 1.65 1.66 1.68 1.68 1.66 1.67 1.69 1.72 1.75 1.78 1.78 1.79 1.81 1.79 1.83 1.81 1.83 1.86 1.88 1.88 1.88 1.86 1.83 1.83 1.79 1.76 1.77 1.78 1.79 1.84 1.87 1.90 1.90 1.91 1.91 1.92 1.94 1.96 2.00 1.96 1.96 1.90 1.82 1.80 1.70 1.74 1.84 1.87 1.88 1.84 1.95 1.97 1.95 1.95 1.93 1.90 1.77 1.75 1.95 1.94 1.96 1.97 1.86 1.77 1.73 1.65 1.51 1.46 1.53 1.53 1.49 1.43 1.44 1.45 1.46
1.80 1.82 1.72 1.76 1.76 1.78 1.81 1.77 1.73 1.74 1.70 1.72 1.72 1.74 1.72 1.72 1.72 1.73 1.73 1.75 1.76 1.77 1.78 1.78 1.79 1.79 1.81 1.85 1.84 1.84 1.83 1.81 1.78 1.77 1.75 1.75 1.77 1.78 1.79 1.84 1.89 1.92 1.91 1.92 1.96 1.99 1.95 2.04 2.00 2.02 1.84 1.82 1.87 1.87 1.87 1.85 1.84 1.91 1.89 1.85 1.92 1.99 1.98 1.96 1.93 1.94 1.89 1.88 1.86 1.96 1.92 1.94 1.91 1.82 1.76 1.68 1.56 1.42 1.46 1.49 1.50 1.45 1.43 1.43 1.44
1.77 1.78 1.76 1.75 1.80 1.80 1.81 1.77 1.76 1.74 1.67 1.67 1.68 1.72 1.75 1.77 1.76 1.75 1.72 1.72 1.75 1.76 1.75 1.75 1.75 1.77 1.79 1.82 1.83 1.83 1.81 1.80 1.78 1.75 1.71 1.73 1.73 1.71 1.76 1.81 1.86 1.87 1.88 1.91 1.95 2.03 1.96 2.04 2.09 1.92 1.90 1.88 1.89 1.92 1.91 1.96 1.98 1.96 1.93 1.89 1.89 1.92 1.91 1.92 1.93 1.96 1.95 1.97 1.86 1.86 1.90 1.88 1.92 1.86 1.81 1.72 1.62 1.44 1.38 1.43 1.47 1.46 1.44 1.41 1.40
1.69 1.73 1.73 1.73 1.76 1.74 1.77 1.70 1.75 1.68 1.71 1.66 1.66 1.70 1.74 1.76 1.78 1.78 1.76 1.72 1.73 1.73 1.73 1.73 1.75 1.80 1.82 1.84 1.86 1.85 1.83 1.81 1.80 1.73 1.70 1.72 1.74 1.77 1.80 1.81 1.81 1.83 1.88 1.91 1.95 1.96 1.94 1.98 1.97 1.96 1.96 1.88 1.88 1.90 1.91 1.93 1.97 2.00 1.98 1.99 1.93 1.88 1.88 1.91 1.91 1.91 1.94 1.96 1.93 1.90 1.90 1.86 1.88 1.88 1.86 1.85 1.72 1.54 1.38 1.37 1.42 1.46 1.44 1.41 1.39
1.65 1.69 1.70 1.73 1.71 1.64 1.66 1.67 1.69 1.73 1.75 1.71 1.69 1.69 1.79 1.81 1.83 1.80 1.75 1.75 1.74 1.75 1.75 1.76 1.80 1.81 1.80 1.80 1.82 1.83 1.81 1.81 1.81 1.76 1.78 1.81 1.80 1.80 1.83 1.83 1.87 1.93 1.95 1.94 1.91 1.93 1.93 1.98 1.80 1.90 1.90 1.90 1.91 1.93 1.95 1.90 1.90 1.99 1.99 2.01 1.96 1.95 1.90 1.86 1.85 1.88 1.91 1.95 1.97 1.95 1.91 1.85 1.86 1.89 1.89 1.90 1.83 1.72 1.47 1.37 1.39 1.44 1.45 1.41 1.40
1.54 1.59 1.67 1.68 1.60 1.59 1.59 1.62 1.60 1.70 1.77 1.80 1.80 1.78 1.81 1.80 1.82 1.85 1.79 1.75 1.78 1.78 1.78 1.78 1.77 1.79 1.79 1.78 1.78 1.79 1.79 1.80 1.81 1.80 1.79 1.82 1.87 1.90 1.89 1.86 1.91 1.98 1.98 1.97 1.93 1.94 1.96 1.98 1.91 1.80 1.87 1.90 1.88 1.85 1.85 1.83 1.91 1.95 1.92 1.91 1.91 1.89 1.88 1.86 1.84 1.85 1.89 1.90 1.93 1.95 1.94 1.88 1.86 1.89 1.93 1.94 1.92 1.84 1.62 1.46 1.40 1.42 1.43 1.43 1.42
1.43 1.53 1.64 1.65 1.63 1.60 1.65 1.61 1.63 1.64 1.70 1.79 1.74 1.76 1.81 1.82 1.83 1.82 1.79 1.76 1.76 1.78 1.78 1.79 1.77 1.74 1.73 1.76 1.76 1.77 1.76 1.77 1.80 1.86 1.88 1.91 1.96 1.93 1.87 1.86 1.87 1.95 1.97 1.94 1.89 1.88 1.90 1.92 1.96 1.81 1.67 1.66 1.71 1.73 1.77 1.83 1.84 1.85 1.85 1.84 1.85 1.88 1.87 1.83 1.80 1.82 1.84 1.89 1.91 1.94 1.95 1.92 1.91 1.90 1.93 1.96 1.96 1.94 1.82 1.60 1.44 1.42 1.42 1.43 1.44
1.40 1.48 1.60 1.70 1.69 1.68 1.66 1.71 1.68 1.67 1.67 1.68 1.70 1.76 1.76 1.77 1.78 1.80 1.79 1.78 1.79 1.80 1.78 1.77 1.76 1.72 1.74 1.75 1.76 1.75 1.73 1.75 1.81 1.87 1.90 1.91 1.88 1.85 1.87 1.85 1.86 1.86 1.90 1.87 1.80 1.78 1.75 1.73 1.76 1.75 1.69 1.68 1.69 1.70 1.70 1.69 1.74 1.78 1.79 1.81 1.81 1.83 1.83 1.82 1.80 1.77 1.78 1.81 1.85 1.88 1.93 1.93 1.92 1.95 1.94 1.97 1.98 1.95 1.89 1.76 1.55 1.42 1.43 1.43 1.43
1.45 1.54 1.58 1.63 1.70 1.69 1.68 1.68 1.62 1.63 1.63 1.67 1.66 1.65 1.76 1.74 1.75 1.77 1.79 1.78 1.76 1.79 1.75 1.72 1.74 1.73 1.75 1.74 1.76 1.74 1.72 1.72 1.76 1.81 1.85 1.85 1.82 1.80 1.81 1.81 1.80 1.79 1.83 1.79 1.74 1.68 1.63 1.60 1.60 1.61 1.59 1.56 1.54 1.54 1.55 1.57 1.64 1.69 1.72 1.75 1.78 1.80 1.80 1.80 1.79 1.78 1.77 1.79 1.81 1.86 1.92 1.97 1.94 1.95 1.97 1.94 1.97 1.98 1.93 1.85 1.70 1.50 1.43 1.44 1.44
1.50 1.47 1.48 1.57 1.66 1.69 1.64 1.63 1.61 1.58 1.59 1.63 1.65 1.66 1.68 1.69 1.72 1.79 1.80 1.79 1.75 1.74 1.74 1.72 1.72 1.73 1.75 1.77 1.77 1.74 1.71 1.69 1.70 1.71 1.72 1.75 1.73 1.73 1.75 1.76 1.77 1.75 1.78 1.73 1.69 1.63 1.58 1.55 1.55 1.56 1.54 1.51 1.49 1.52 1.58 1.60 1.60 1.63 1.66 1.70 1.72 1.74 1.76 1.78 1.76 1.74 1.79 1.80 1.83 1.86 1.91 1.97 1.98 1.94 1.94 1.92 1.95 1.97 1.96 1.90 1.80 1.66 1.49 1.44 1.45
1.40 1.42 1.50 1.55 1.63 1.64 1.60 1.59 1.55 1.56 1.58 1.65 1.70 1.71 1.70 1.73 1.74 1.77 1.77 1.76 1.77 1.74 1.75 1.77 1.77 1.78 1.77 1.79 1.76 1.73 1.71 1.67 1.65 1.64 1.63 1.70 1.68 1.66 1.66 1.69 1.68 1.70 1.74 1.66 1.60 1.58 1.56 1.56 1.57 1.59 1.60 1.56 1.53 1.57 1.64 1.69 1.72 1.71 1.72 1.73 1.74 1.74 1.77 1.80 1.80 1.75 1.76 1.80 1.84 1.89 1.92 1.94 1.98 1.96 1.93 1.88 1.88 1.91 1.93 1.92 1.88 1.78 1.64 1.54 1.48
1.34 1.38 1.44 1.51 1.57 1.56 1.57 1.57 1.52 1.51 1.55 1.64 1.65 1.68 1.75 1.77 1.78 1.79 1.76 1.76 1.73 1.70 1.76 1.80 1.83 1.82 1.81 1.81 1.81 1.77 1.72 1.66 1.62 1.59 1.59 1.63 1.61 1.61 1.62 1.62 1.62 1.62 1.65 1.63 1.56 1.55 1.55 1.57 1.61 1.64 1.63 1.61 1.57 1.56 1.60 1.63 1.65 1.73 1.74 1.71 1.69 1.68 1.72 1.76 1.79 1.80 1.80 1.81 1.84 1.90 1.94 1.94 1.95 1.95 1.95 1.91 1.88 1.88 1.88 1.89 1.89 1.83 1.77 1.69 1.57
1.22 1.29 1.38 1.44 1.48 1.52 1.53 1.50 1.50 1.49 1.52 1.59 1.59 1.64 1.70 1.72 1.72 1.71 1.67 1.69 1.67 1.68 1.75 1.80 1.81 1.83 1.83 1.82 1.80 1.75 1.73 1.68 1.64 1.62 1.63 1.58 1.58 1.57 1.57 1.56 1.58 1.57 1.59 1.57 1.58 1.56 1.56 1.57 1.58 1.58 1.58 1.57 1.57 1.56 1.57 1.58 1.60 1.68 1.73 1.68 1.60 1.54 1.55 1.62 1.68 1.71 1.78 1.84 1.85 1.86 1.93 1.97 1.95 1.95 1.99 1.97 1.91 1.87 1.85 1.89 1.89 1.86 1.77 1.67 1.71
1.23 1.30 1.36 1.39 1.45 1.50 1.47 1.45 1.47 1.48 1.51 1.55 1.56 1.60 1.65 1.62 1.62 1.63 1.66 1.68 1.65 1.69 1.73 1.75 1.79 1.80 1.77 1.78 1.79 1.78 1.77 1.78 1.74 1.73 1.68 1.61 1.58 1.56 1.54 1.53 1.52 1.54 1.53 1.51 1.60 1.61 1.58 1.57 1.57 1.56 1.53 1.50 1.48 1.50 1.52 1.48 1.49 1.53 1.54 1.46 1.42 1.40 1.37 1.37 1.42 1.49 1.64 1.79 1.84 1.85 1.88 1.95 1.98 1.96 1.96 1.99 1.98 1.90 1.85 1.85 1.87 1.88 1.85 1.78 1.70
1.29 1.30 1.35 1.38 1.46 1.49 1.46 1.49 1.50 1.49 1.51 1.48 1.54 1.59 1.65 1.63 1.63 1.64 1.68 1.67 1.67 1.69 1.69 1.70 1.72 1.72 1.71 1.73 1.73 1.77 1.77 1.77 1.79 1.79 1.76 1.70 1.64 1.57 1.51 1.52 1.49 1.52 1.53 1.53 1.61 1.61 1.61 1.59 1.56 1.50 1.46 1.42 1.43 1.46 1.41 1.31 1.27 1.25 1.25 1.20 1.20 1.23 1.23 1.28 1.33 1.37 1.42 1.59 1.72 1.76 1.81 1.90 1.95 1.98 1.97 1.97 1.96 1.97 1.89 1.82 1.86 1.92 1.90 1.82 1.81
1.27 1.28 1.36 1.44 1.47 1.47 1.46 1.50 1.49 1.48 1.49 1.46 1.53 1.59 1.59 1.63 1.67 1.65 1.65 1.67 1.66 1.65 1.65 1.64 1.62 1.63 1.66 1.67 1.68 1.71 1.73 1.73 1.74 1.79 1.79 1.72 1.64 1.57 1.53 1.50 1.49 1.53 1.54 1.53 1.57 1.62 1.61 1.57 1.54 1.50 1.45 1.41 1.37 1.35 1.30 1.19 1.13 1.11 1.10 1.09 1.12 1.12 1.12 1.16 1.21 1.30 1.34 1.38 1.48 1.57 1.64 1.77 1.90 1.96 1.97 1.97 1.99 2.01 1.97 1.92 1.87 1.87 1.89 1.90 1.89
1.34 1.34 1.36 1.42 1.41 1.44 1.45 1.48 1.49 1.47 1.45 1.44 1.51 1.55 1.57 1.63 1.65 1.63 1.65 1.67 1.65 1.64 1.62 1.60 1.60 1.61 1.64 1.64 1.63 1.65 1.67 1.64 1.67 1.69 1.70 1.68 1.62 1.56 1.53 1.53 1.53 1.54 1.54 1.55 1.56 1.57 1.54 1.51 1.51 1.48 1.40 1.32 1.24 1.23 1.22 1.18 1.09 1.08 1.09 1.08 1.06 1.03 1.06 1.06 1.05 1.11 1.17 1.22 1.26 1.31 1.39 1.54 1.73 1.89 1.97 2.00 2.04 2.02 1.83 1.79 1.70 1.74 1.81 1.85 1.91
1.33 1.39 1.40 1.37 1.44 1.49 1.50 1.50 1.49 1.46 1.45 1.48 1.51 1.50 1.54 1.59 1.63 1.64 1.66 1.66 1.63 1.61 1.60 1.60 1.62 1.63 1.64 1.65 1.63 1.62 1.61 1.63 1.61 1.59 1.60 1.60 1.59 1.55 1.54 1.54 1.56 1.56 1.55 1.55 1.50 1.50 1.47 1.48 1.46 1.39 1.28 1.18 1.12 1.14 1.14 1.09 1.10 1.12 1.10 1.08 1.03 0.99 1.00 0.97 0.96 0.96 0.99 1.06 1.13 1.14 1.16 1.23 1.42 1.66 1.85 1.98 2.10 1.92 1.90 1.90 1.77 1.68 1.71 1.72 1.70
1.36 1.38 1.35 1.37 1.44 1.46 1.51 1.47 1.50 1.50 1.50 1.51 1.53 1.53 1.57 1.58 1.60 1.62 1.62 1.59 1.61 1.62 1.62 1.60 1.58 1.60 1.65 1.64 1.64 1.66 1.67 1.62 1.60 1.52 1.54 1.56 1.52 1.51 1.51 1.52 1.54 1.54 1.53 1.53 1.49 1.46 1.47 1.44 1.39 1.24 1.18 1.13 1.09 1.10 1.08 1.05 1.05 1.04 1.04 1.05 1.02 1.03 1.01 0.96 0.97 0.95 0.93 0.92 0.94 1.02 1.09 1.13 1.19 1.32 1.56 1.83 2.04 1.95 1.95 1.91 1.84 1.79 1.69 1.59 1.55
1.33 1.35 1.38 1.42 1.40 1.46 1.50 1.45 1.50 1.53 1.55 1.56 1.57 1.59 1.60 1.63 1.64 1.62 1.60 1.60 1.61 1.60 1.59 1.57 1.59 1.65 1.67 1.64 1.65 1.70 1.68 1.66 1.57 1.55 1.52 1.54 1.50 1.50 1.50 1.50 1.50 1.50 1.49 1.47 1.44 1.39 1.42 1.39 1.32 1.24 1.13 1.10 1.09 1.05 1.07 1.06 1.10 1.06 1.04 1.02 1.01 1.01 0.98 1.00 1.00 1.00 1.02 0.99 0.94 0.93 0.98 1.04 1.10 1.17 1.28 1.49 1.84 1.94 1.88 1.80 1.75 1.71 1.71 1.64 1.56
1.35 1.38 1.38 1.38 1.41 1.47 1.49 1.48 1.49 1.53 1.57 1.60 1.62 1.64 1.69 1.72 1.73 1.68 1.62 1.61 1.60 1.59 1.61 1.61 1.64 1.63 1.63 1.72 1.71 1.71 1.69 1.68 1.58 1.57 1.53 1.51 1.55 1.62 1.54 1.50 1.50 1.46 1.42 1.40 1.37 1.38 1.34 1.27 1.23 1.27 1.26 1.13 1.08 1.04 1.08 1.10 1.09 1.06 1.04 0.98 0.99 1.03 1.03 1.03 1.07 1.12 1.16 1.09 1.05 1.02 1.00 1.01 1.06 1.11 1.18 1.27 1.44 1.76 1.82 1.74 1.62 1.66 1.62 1.62 1.68
1.38 1.39 1.41 1.38 1.37 1.44 1.48 1.52 1.56 1.61 1.63 1.63 1.64 1.65 1.68 1.74 1.76 1.70 1.67 1.62 1.60 1.63 1.62 1.63 1.68 1.64 1.70 1.78 1.80 1.83 1.83 1.75 1.65 1.56 1.54 1.62 1.70 1.65 1.58 1.52 1.48 1.42 1.37 1.36 1.32 1.31 1.27 1.24 1.19 1.27 1.27 1.14 1.06 1.06 1.04 1.04 1.06 1.07 1.00 0.94 0.93 0.96 1.02 1.08 1.14 1.17 1.17 1.15 1.13 1.09 1.06 1.06 1.06 1.06 1.09 1.13 1.21 1.38 1.66 1.71 1.59 1.59 1.61 1.60 1.68
1.43 1.40 1.41 1.41 1.41 1.45 1.52 1.53 1.56 1.59 1.61 1.62 1.66 1.65 1.67 1.86 1.79 1.67 1.63 1.64 1.65 1.66 1.67 1.70 1.74 1.67 1.71 2.00 1.94 1.75 1.67 1.60 1.62 1.62 1.65 1.68 1.65 1.57 1.54 1.50 1.47 1.37 1.30 1.25 1.21 1.18 1.19 1.20 1.13 1.16 1.24 1.19 1.14 1.14 1.10 1.02 1.02 1.07 1.00 0.95 0.96 0.94 0.99 1.08 1.10 1.10 1.14 1.15 1.14 1.19 1.23 1.23 1.20 1.17 1.13 1.13 1.16 1.23 1.34 1.58 1.68 1.65 1.65 1.70 1.70
1.39 1.39 1.37 1.39 1.39 1.43 1.48 1.49 1.52 1.56 1.56 1.57 1.61 1.61 1.60 1.64 1.54 1.55 1.53 1.53 1.55 1.61 1.64 1.59 1.66 1.64 1.59 1.84 1.80 1.71 1.62 1.55 1.56 1.57 1.53 1.58 1.53 1.51 1.50 1.47 1.35 1.25 1.15 1.09 1.07 1.08 1.08 1.07 1.08 1.07 1.10 1.19 1.24 1.20 1.17 1.06 1.04 1.07 0.98 0.93 0.97 0.99 1.04 1.08 1.09 1.09 1.13 1.14 1.16 1.19 1.17 1.23 1.24 1.29 1.31 1.30 1.30 1.28 1.35 1.49 1.58 1.67 1.70 1.72 1.76
1.33 1.34 1.33 1.33 1.35 1.35 1.36 1.33 1.42 1.49 1.47 1.46 1.48 1.47 1.41 1.41 1.50 1.41 1.34 1.38 1.43 1.53 1.53 1.56 1.54 1.54 1.54 1.53 1.72 1.66 1.60 1.53 1.58 1.60 1.51 1.52 1.53 1.50 1.39 1.27 1.19 1.13 1.06 0.99 0.98 0.96 1.00 1.00 0.99 1.06 1.12 1.08 1.06 1.14 1.15 1.12 1.00 0.97 0.96 0.86 0.87 0.98 1.06 1.10 1.05 1.09 1.09 1.12 1.14 1.11 1.10 1.11 1.16 1.20 1.25 1.29 1.28 1.31 1.37 1.45 1.53 1.63 1.74 1.80 1.83
1.25 1.32 1.28 1.27 1.30 1.32 1.28 1.28 1.37 1.39 1.40 1.40 1.40 1.41 1.40 1.35 1.31 1.30 1.33 1.35 1.39 1.52 1.45 1.48 1.48 1.51 1.51 1.49 1.56 1.57 1.49 1.43 1.43 1.41 1.42 1.40 1.34 1.29 1.18 1.09 1.02 0.94 0.90 0.91 0.87 0.85 0.87 0.90 0.97 0.99 1.08 1.00 0.96 1.08 1.11 1.04 0.90 0.86 0.81 0.82 0.80 0.86 1.00 1.07 0.99 1.04 1.05 1.07 1.07 1.04 1.01 1.00 1.05 1.14 1.21 1.21 1.19 1.20 1.22 1.24 1.30 1.41 1.53 1.63 1.74
1.29 1.29 1.30 1.28 1.26 1.24 1.24 1.28 1.32 1.33 1.34 1.38 1.37 1.30 1.36 1.38 1.33 1.33 1.35 1.36 1.46 1.50 1.49 1.48 1.50 1.43 1.44 1.46 1.45 1.45 1.39 1.35 1.36 1.35 1.26 1.21 1.14 1.10 1.03 1.02 0.93 0.87 0.85 0.87 0.91 0.90 0.93 0.91 0.94 0.91 0.91 1.01 1.00 1.08 1.06 1.05 0.85 0.91 0.89 0.76 0.68 0.61 0.77 0.88 0.94 1.01 1.02 1.02 1.03 0.99 0.95 0.92 0.97 1.04 1.10 1.13 1.14 1.15 1.17 1.21 1.20 1.20 1.21 1.29 1.43
1.32 1.31 1.28 1.23 1.24 1.22 1.23 1.26 1.29 1.31 1.29 1.31 1.30 1.33 1.35 1.39 1.39 1.38 1.40 1.36 1.31 1.38 1.37 1.37 1.34 1.35 1.32 1.40 1.42 1.37 1.33 1.27 1.29 1.22 1.14 1.09 1.07 1.04 1.03 0.96 0.91 0.96 0.92 0.85 0.90 0.93 0.99 0.99 0.99 0.96 0.94 0.78 0.85 0.89 1.02 1.03 0.95 0.85 0.62 0.64 0.67 0.64 0.53 0.67 0.77 0.95 1.01 1.00 0.97 0.96 0.95 0.89 0.89 0.91 0.93 0.92 0.96 1.01 1.06 1.12 1.14 1.17 1.18 1.19 1.26
1.26 1.24 1.25 1.24 1.24 1.21 1.24 1.26 1.28 1.28 1.27 1.28 1.28 1.32 1.35 1.32 1.35 1.37 1.36 1.31 1.31 1.24 1.19 1.17 1.24 1.27 1.29 1.29 1.32 1.38 1.34 1.28 1.20 1.14 1.09 1.04 1.02 0.96 0.93 0.95 0.98 1.01 1.01 0.97 0.96 1.00 1.02 1.05 1.09 1.05 0.99 0.87 0.79 0.88 0.96 1.00 0.96 0.99 0.77 0.66 0.60 0.61 0.66 0.77 0.82 0.90 0.96 0.94 0.96 0.94 0.94 0.90 0.89 0.90 0.89 0.89 0.94 0.97 1.00 1.01 1.05 1.08 1.12 1.16 1.17
1.21 1.26 1.29 1.30 1.29 1.28 1.30 1.31 1.31 1.31 1.28 1.29 1.34 1.34 1.31 1.26 1.21 1.14 1.07 1.07 1.04 1.05 1.01 1.03 1.09 1.10 1.13 1.28 1.32 1.32 1.31 1.26 1.21 1.16 1.11 1.06 1.01 1.00 0.96 0.96 0.98 0.98 1.00 1.01 1.04 1.07 1.06 1.05 1.07 1.04 0.98 1.01 0.91 0.84 0.84 0.97 0.96 0.95 0.95 0.95 0.86 0.71 0.74 0.80 0.71 0.58 0.85 0.96 0.94 0.91 0.90 0.89 0.91 0.89 0.90 0.89 0.89 0.92 1.00 0.99 1.01 0.99 1.01 1.05 1.10
1.19 1.29 1.33 1.33 1.34 1.32 1.30 1.31 1.28 1.28 1.33 1.34 1.38 1.35 1.30 1.27 1.20 1.15 1.14 1.11 1.05 1.11 1.20 1.22 1.19 1.24 1.27 1.22 1.23 1.29 1.29 1.24 1.22 1.20 1.15 1.09 1.01 0.99 0.96 0.96 0.97 0.98 1.01 1.01 1.03 1.06 1.10 1.08 1.08 1.05 1.01 0.98 0.94 0.79 0.79 0.84 0.91 0.95 1.01 1.01 1.03 1.06 1.01 0.80 0.63 0.70 0.57 0.72 0.80 0.80 0.81 0.84 0.86 0.85 0.86 0.88 0.89 0.90 0.92 0.96 0.97 0.99 0.99 0.99 0.99
1.20 1.29 1.30 1.32 1.31 1.30 1.28 1.27 1.29 1.31 1.35 1.37 1.38 1.39 1.30 1.27 1.21 1.18 1.16 1.13 1.10 1.10 1.18 1.20 1.29 1.30 1.24 1.23 1.26 1.27 1.28 1.27 1.21 1.16 1.10 1.02 0.97 0.94 0.98 1.00 1.01 1.04 1.08 1.07 1.06 1.07 1.05 1.06 1.08 1.06 1.04 1.02 0.97 0.85 0.86 0.94 0.84 0.90 1.05 1.00 1.02 1.03 0.96 0.94 0.90 0.70 0.63 0.56 0.62 0.77 0.84 0.80 0.77 0.79 0.81 0.82 0.84 0.86 0.86 0.87 0.88 0.89 0.91 0.93 0.96
1.23 1.24 1.25 1.28 1.30 1.29 1.26 1.26 1.27 1.30 1.33 1.37 1.36 1.37 1.36 1.31 1.23 1.18 1.12 1.15 1.18 1.19 1.24 1.29 1.29 1.30 1.22 1.25 1.25 1.24 1.23 1.20 1.18 1.12 1.06 1.01 0.98 0.97 0.98 0.98 1.01 1.05 1.03 0.99 0.99 0.98 0.97 0.98 0.97 0.94 0.93 0.94 0.95 0.97 0.92 0.94 0.97 0.97 0.98 0.99 0.98 0.89 0.87 0.87 0.87 0.84 0.67 0.59 0.59 0.61 0.63 0.76 0.78 0.75 0.74 0.76 0.79 0.83 0.84 0.84 0.85 0.84 0.83 0.84 0.87
1.22 1.26 1.27 1.28 1.25 1.23 1.21 1.21 1.21 1.27 1.31 1.34 1.36 1.34 1.35 1.36 1.28 1.20 1.13 1.12 1.17 1.18 1.21 1.22 1.26 1.26 1.20 1.20 1.21 1.19 1.16 1.14 1.12 1.11 1.06 1.03 1.01 1.00 0.98 0.94 0.97 0.97 0.93 0.90 0.87 0.86 0.88 0.89 0.90 0.89 0.89 0.88 0.95 0.97 0.96 1.00 1.05 1.03 1.00 0.98 0.85 0.83 0.85 0.84 0.83 0.80 0.79 0.75 0.59 0.59 0.66 0.66 0.63 0.73 0.80 0.75 0.74 0.75 0.76 0.77 0.78 0.78 0.78 0.78 0.81
1.25 1.27 1.25 1.24 1.22 1.18 1.15 1.14 1.18 1.26 1.30 1.31 1.33 1.30 1.33 1.35 1.28 1.22 1.16 1.12 1.14 1.15 1.11 1.13 1.22 1.23 1.18 1.17 1.15 1.14 1.13 1.09 1.09 1.06 1.06 1.06 1.01 1.00 0.98 0.97 0.95 0.92 0.86 0.82 0.82 0.84 0.86 0.87 0.89 0.88 0.86 0.84 0.87 0.92 0.95 0.99 1.04 1.05 1.01 0.98 0.91 0.87 0.79 0.74 0.75 0.78 0.73 0.66 0.64 0.62 0.65 0.69 0.68 0.67 0.76 0.81 0.78 0.74 0.73 0.72 0.71 0.70 0.73 0.74 0.76
Wind_Speed
19 21 21 22 23 23 22 22 20 19 18 18 18 17 17 17 17 16 15 15 15 15 15 15 14 14 14 14 14 13 13 12 12 11 10 10 9 9 8 8 8 8 8 8 8 8 9 9 9 8 8 8 8 9 9 9 9 10 9 8 8 8 9 9 10 10 10 10 10 10 10 9 9 9 9 9 8 8 7 7 6 6 7 7 8
21 22 22 23 22 22 21 20 19 18 18 17 17 17 16 16 16 15 15 15 15 14 15 14 14 14 14 14 13 13 12 12 11 10 10 9 9 8 8 8 8 8 7 7 8 8 8 8 8 8 8 8 8 8 9 9 9 9 9 8 7 7 8 8 9 9 10 10 10 10 10 9 9 9 10 9 9 8 8 8 7 7 7 8 9
20 21 22 22 22 21 20 19 18 18 17 16 16 15 15 15 15 15 15 15 14 14 14 14 14 14 14 13 13 12 12 11 11 10 9 9 8 8 8 7 7 7 7 8 8 8 8 8 8 8 7 7 8 8 8 8 8 8 8 8 7 6 6 7 7 8 9 10 10 10 10 9 9 9 9 9 8 8 8 8 8 7 8 8 9
20 20 20 21 20 19 18 18 17 17 16 15 15 15 15 14 14 14 14 14 14 14 14 14 14 14 13 13 12 12 11 11 10 10 9 8 8 7 7 7 7 7 7 7 7 7 7 7 7 7 7 7 7 7 7 7 7 8 7 7 6 6 5 5 6 6 7 8 9 10 10 9 8 8 9 9 8 7 7 7 8 8 8 8 9
19 20 20 19 19 18 17 17 16 16 15 15 15 15 14 14 14 14 14 14 13 13 13 13 13 13 12 12 11 11 11 10 9 9 8 8 7 7 6 6 6 6 7 7 7 7 7 7 7 7 7 7 6 6 6 7 7 7 7 6 6 5 4 4 4 5 6 7 8 9 9 9 8 8 8 8 8 7 7 7 7 8 9 9 9
19 19 19 19 18 17 16 16 16 15 15 16 16 15 14 14 14 14 14 14 13 13 13 13 12 12 12 11 11 10 10 9 9 8 8 7 7 6 6 6 6 6 6 6 6 6 6 6 6 6 6 6 6 5 6 6 6 6 6 6 6 5 4 3 3 3 4 5 6 8 8 8 8 8 8 7 7 7 7 7 8 8 9 9 9
19 18 18 18 17 16 16 15 16 16 15 15 16 15 14 14 14 14 14 13 13 13 12 12 12 11 11 10 10 9 9 8 8 7 7 7 6 6 5 5 5 5 5 5 5 6 6 6 6 6 6 6 5 5 5 5 6 6 5 5 5 5 4 3 2 2 3 4 4 6 7 7 8 8 7 7 7 6 7 7 7 8 8 9 9
18 18 17 17 16 15 15 15 16 16 15 15 15 14 14 14 14 14 13 13 13 12 12 12 11 11 10 9 9 9 8 8 7 7 7 6 6 5 5 4 4 4 4 4 5 5 5 6 6 6 6 6 5 5 5 5 5 5 5 5 5 5 4 3 2 2 2 3 3 4 5 6 7 7 7 7 6 6 6 7 7 7 8 8 9
18 17 17 16 15 15 14 14 15 15 14 14 14 14 14 14 13 13 13 13 12 12 11 11 10 10 9 9 9 8 8 7 7 6 6 6 5 4 4 4 4 4 4 4 4 4 5 5 5 6 6 5 5 5 5 5 5 5 5 6 5 5 4 3 3 3 2 2 2 3 4 5 6 7 7 7 6 5 5 6 7 7 7 8 8
17 16 16 15 15 14 13 13 14 14 14 14 14 14 14 13 13 13 13 12 12 11 11 10 10 9 9 8 8 8 7 7 6 6 5 5 4 4 3 3 3 3 3 3 4 4 4 5 5 5 5 5 5 5 5 5 5 5 6 6 5 5 5 4 3 3 3 2 2 2 3 4 6 6 6 6 6 5 5 6 6 6 7 7 7
16 16 15 15 14 14 13 13 14 14 13 13 14 14 13 13 13 13 12 12 11 11 10 10 9 9 8 8 7 7 7 6 6 5 4 4 3 3 2 2 3 3 3 3 4 4 4 4 4 5 5 6 6 5 5 5 5 5 6 6 5 5 6 5 3 3 3 2 2 2 3 4 5 5 6 6 5 5 5 5 6 6 6 7 7
16 15 15 14 14 13 13 13 13 13 13 13 13 13 13 13 13 12 12 11 11 10 10 10 9 8 8 8 7 7 6 6 5 4 4 3 3 2 2 2 2 2 3 3 4 4 4 4 4 4 5 5 5 5 5 5 5 5 5 5 5 5 5 5 3 3 2 2 1 2 2 2 4 4 5 5 5 5 5 5 5 6 6 7 7
15 15 15 14 13 13 13 13 13 13 13 13 13 13 12 12 12 11 11 10 10 10 9 9 9 8 8 7 7 6 6 5 4 4 3 3 3 2 2 2 2 3 3 4 4 4 4 4 4 4 4 5 5 5 5 4 4 5 5 5 5 5 4 4 3 2 1 2 1 1 1 1 2 3 4 4 4 4 4 5 5 6 6 7 7
15 15 15 14 13 13 13 12 12 12 12 12 12 12 12 11 11 10 10 10 10 9 9 9 8 8 8 7 6 6 5 5 4 4 3 3 3 2 2 2 3 3 3 4 4 4 4 4 4 4 4 4 5 5 5 4 4 4 5 5 5 4 3 3 2 1 2 2 1 0 1 1 1 2 3 3 4 4 4 5 5 6 6 6 7
15 14 14 13 13 13 13 12 12 12 12 12 12 11 11 11 10 10 10 10 9 9 9 9 8 7 7 6 6 5 5 5 4 3 3 3 2 2 2 2 2 3 3 4 4 4 4 4 4 4 4 4 4 5 6 5 4 4 4 5 5 4 3 2 1 1 2 1 0 0 1 2 1 1 1 2 3 3 3 4 5 5 6 6 6
14 14 13 13 13 12 12 12 11 12 12 11 11 11 11 10 10 10 10 9 9 9 9 8 7 7 6 6 5 5 5 4 4 3 2 2 2 1 2 2 3 3 4 4 4 4 4 4 4 4 4 4 5 5 6 6 5 4 4 5 4 3 3 3 3 1 1 1 1 1 1 2 2 1 1 2 2 3 3 4 5 5 6 6 6
14 13 12 12 12 12 11 11 11 11 11 11 11 11 10 10 10 10 9 9 9 9 8 7 7 6 6 5 5 5 4 4 3 3 2 1 1 2 2 2 3 4 4 4 5 5 5 5 4 5 5 5 5 6 6 7 7 5 4 4 4 4 4 4 4 3 1 1 2 2 2 3 4 3 2 2 2 3 3 4 4 5 6 6 6
13 12 12 12 12 11 11 11 11 11 11 11 11 10 10 10 10 9 9 9 8 8 7 7 6 6 5 5 4 4 4 3 2 2 2 2 2 2 2 2 3 4 4 4 5 6 6 6 6 5 5 5 6 6 6 7 8 7 5 4 5 5 5 5 5 5 3 2 2 3 3 3 4 5 3 3 3 3 3 4 4 5 6 6 6
12 12 11 11 11 11 11 11 10 10 10 10 10 10 10 9 9 9 9 8 8 7 7 6 5 5 4 4 4 4 3 2 2 2 1 2 2 2 2 3 3 4 4 5 6 7 7 7 7 5 5 6 6 6 7 7 8 8 6 5 5 5 6 6 6 6 5 4 3 4 4 4 5 6 5 4 4 4 4 4 4 5 6 6 6
12 11 11 11 11 11 11 11 10 10 9 10 10 10 9 9 9 9 8 8 7 7 6 6 5 4 4 4 3 3 2 1 1 1 1 1 2 3 3 3 4 4 5 6 7 8 9 8 7 5 5 6 6 6 7 7 8 8 7 6 6 6 6 6 6 6 6 5 5 5 5 6 6 7 7 6 5 5 5 5 5 5 6 6 6
12 12 11 11 12 12 12 11 10 10 9 9 9 9 9 8 8 8 8 7 6 6 5 5 4 4 4 3 3 2 2 1 1 1 1 2 3 3 4 4 5 6 6 7 8 9 9 8 6 6 6 6 6 6 7 8 8 8 7 7 6 6 7 7 7 6 6 6 6 6 6 6 7 8 8 8 7 6 6 6 6 6 6 6 6
12 12 12 12 12 11 11 11 10 10 10 9 8 8 8 8 7 7 7 6 6 5 5 4 3 3 3 3 3 2 2 1 1 1 2 3 3 4 5 5 6 7 7 8 8 8 9 8 6 5 5 5 6 7 7 7 8 8 8 7 7 7 7 7 7 7 6 6 7 7 7 7 8 9 9 9 9 8 7 7 7 7 7 7 7
12 12 12 12 11 11 11 10 10 10 9 9 8 8 7 7 7 6 6 5 5 4 4 3 3 2 2 2 2 2 1 1 1 2 2 3 4 5 5 6 6 7 7 7 7 7 8 7 6 5 5 5 6 7 7 8 8 8 8 8 8 8 8 8 8 8 7 7 7 8 8 8 8 10 10 11 10 10 9 9 8 8 8 8 8
13 12 12 12 11 11 11 10 9 9 9 8 8 8 7 6 6 6 5 5 4 4 3 3 2 2 2 2 2 1 0 1 2 3 3 4 4 5 5 6 6 7 6 6 7 7 7 7 6 5 5 5 6 7 8 8 9 9 9 8 8 8 8 9 9 9 8 8 8 8 9 9 9 10 11 12 12 12 11 10 10 9 9 9 9
12 12 12 12 12 11 10 9 9 9 8 8 8 7 7 6 6 6 5 4 4 4 3 2 2 2 2 2 1 1 1 1 2 3 4 4 5 5 5 6 6 6 6 6 6 7 6 7 7 6 6 6 7 8 8 9 9 9 9 9 9 9 9 9 10 10 10 9 9 9 10 10 10 11 12 13 13 13 13 12 12 11 10 10 10
12 12 12 12 11 10 10 9 9 8 8 8 7 7 6 6 5 5 5 4 3 3 3 2 2 2 2 2 2 2 2 2 3 3 4 4 5 5 5 5 6 6 6 6 6 6 6 6 7 7 7 7 8 9 10 10 10 10 10 10 10 10 10 10 10 10 11 11 11 10 10 11 11 12 12 13 14 14 14 14 13 13 12 11 11
12 12 12 11 11 10 10 10 9 8 8 8 7 6 6 6 5 5 4 4 3 3 3 2 2 2 2 2 2 2 2 3 3 4 4 4 4 5 5 6 6 6 6 6 7 7 7 7 7 7 8 8 9 10 11 11 11 11 11 11 11 11 11 11 11 11 11 11 12 11 11 11 12 12 13 14 15 15 15 15 15 14 14 13 12
12 12 12 12 11 10 10 9 9 8 8 7 7 6 6 5 5 4 4 4 3 3 3 3 2 2 2 2 2 2 2 3 3 3 4 4 4 5 5 6 6 6 6 7 7 7 7 7 7 8 9 9 10 11 12 12 12 12 12 11 11 11 12 12 12 11 11 11 11 12 11 11 12 12 13 14 15 16 16 16 16 15 15 15 14
12 12 12 12 11 10 10 9 9 8 7 7 6 6 5 5 5 4 4 4 4 4 3 3 3 3 3 3 3 3 3 3 3 4 4 4 5 5 5 6 6 6 6 7 7 7 8 8 8 9 9 10 11 12 12 13 13 12 12 12 12 12 12 12 12 12 11 11 11 11 12 12 12 13 13 15 15 16 17 17 17 17 16 16 16
12 12 12 11 11 10 10 9 8 8 7 7 6 5 5 5 5 5 5 4 4 4 4 3 3 3 3 3 3 3 3 3 3 4 4 5 5 5 5 6 6 6 6 7 7 8 8 8 9 9 10 11 12 13 13 13 13 13 13 13 13 13 13 12 12 12 11 11 11 11 11 12 12 13 13 15 16 17 17 18 18 18 17 17 17
12 12 11 11 11 10 10 9 8 8 7 6 6 5 5 5 5 5 5 5 5 4 4 4 4 4 4 4 3 4 4 4 4 4 5 5 5 6 6 6 6 6 6 7 8 8 8 9 9 10 11 11 12 13 14 14 13 13 13 13 13 13 13 12 12 11 11 11 11 11 11 12 12 13 13 14 16 17 17 18 18 18 18 18 18
11 11 11 11 11 10 10 9 8 8 7 6 6 6 5 6 5 5 5 5 5 5 4 4 4 4 4 4 4 4 4 4 5 5 5 5 6 6 6 6 6 7 7 8 8 9 9 10 10 11 12 12 13 13 13 13 13 13 13 13 13 12 12 12 12 11 11 11 11 12 12 12 13 13 14 15 15 16 16 17 18 19 19 19 19
10 11 11 11 11 10 10 9 8 8 7 7 7 6 6 6 6 6 6 6 5 5 5 5 4 4 5 5 5 5 5 5 6 6 6 6 6 6 7 7 7 7 8 8 9 9 10 10 11 12 13 13 12 12 12 12 12 12 12 12 12 12 12 12 12 11 11 11 11 12 12 13 13 14 14 15 15 15 16 17 17 18 19 20 19
10 10 10 10 10 9 9 8 8 8 8 7 7 7 6 6 6 6 6 6 6 6 5 5 5 5 5 6 6 6 6 6 7 7 7 7 7 7 7 8 8 8 9 9 10 10 11 11 12 12 13 12 12 12 12 12 11 12 12 12 12 12 11 11 11 11 12 12 12 12 12 13 14 14 15 16 15 15 16 17 17 18 20 20 20
10 10 10 11 10 9 8 8 8 8 8 8 7 7 7 6 6 6 6 6 7 6 6 6 6 6 6 6 7 7 7 7 7 7 7 7 7 7 8 8 9 9 9 10 11 11 11 11 12 13 13 12 12 12 12 12 12 12 12 12 12 12 11 10 10 11 11 12 12 12 12 13 13 14 15 16 16 16 17 17 17 18 20 20 21
10 10 10 11 10 10 9 8 8 8 8 8 8 7 7 7 6 6 6 6 7 7 7 7 7 7 7 7 7 8 8 8 8 8 8 8 8 8 8 9 9 10 10 11 11 11 11 12 12 12 12 12 12 11 11 11 12 12 12 12 12 12 11 11 10 10 10 10 11 11 12 13 13 14 15 16 16 17 18 18 18 18 19 20 21
11 11 10 10 10 10 9 9 9 8 8 8 8 7 7 7 7 6 6 6 7 7 7 7 7 7 8 8 8 8 8 8 8 8 8 8 9 9 9 9 10 10 11 11 11 11 11 12 12 11 12 12 12 12 12 12 12 13 13 13 12 11 11 11 11 10 10 10 10 10 11 12 13 14 14 16 16 17 18 19 19 19 19 20 20
11 11 11 11 10 10 10 10 9 9 8 7 7 7 7 7 7 7 7 7 7 8 8 8 7 8 8 8 8 8 9 9 9 9 8 9 9 9 10 10 11 11 12 12 12 12 11 11 11 11 12 12 13 12 12 13 13 13 13 13 12 11 11 10 10 10 10 10 10 10 10 11 11 12 13 14 16 16 17 19 20 20 21 21 21
12 12 12 11 11 11 10 10 9 9 8 7 7 7 7 8 7 7 7 7 8 8 8 8 8 9 9 9 9 9 10 10 10 9 9 9 10 10 11 11 12 12 12 12 12 12 12 12 12 12 12 12 13 13 13 13 14 13 13 13 12 11 10 9 10 10 10 10 10 10 10 10 10 11 12 13 14 15 16 17 19 20 21 22 22
12 12 12 12 12 11 11 10 10 9 9 8 8 7 7 7 7 7 7 8 8 8 8 8 9 9 8 9 9 9 10 9 9 9 9 10 10 11 11 11 12 12 12 12 12 12 12 12 12 13 13 13 13 13 13 13 14 14 13 13 12 11 10 9 10 10 10 10 11 11 11 10 10 10 10 11 11 12 14 15 17 19 20 20 21
12 12 12 12 12 12 11 11 10 9 9 9 8 8 7 7 7 8 8 8 8 8 8 8 9 8 8 8 9 9 9 9 9 9 10 10 10 11 11 11 11 12 12 12 13 12 12 12 13 13 13 13 13 13 13 13 14 13 13 13 12 11 10 10 11 11 10 11 11 11 11 11 10 10 10 10 10 11 12 13 15 17 18 19 20
12 12 12 12 12 12 11 11 10 10 9 9 8 8 8 7 7 7 7 7 7 8 8 8 8 8 8 8 8 8 9 9 9 9 9 10 10 10 11 11 12 13 13 13 13 13 12 12 12 13 13 13 13 13 13 13 13 13 14 14 12 11 11 11 12 11 11 11 11 11 11 11 11 11 11 11 11 11 11 12 13 15 16 18 19
13 13 13 12 12 12 11 11 11 10 10 9 9 8 8 7 7 7 7 7 7 7 7 7 7 7 7 7 8 8 8 8 8 8 8 9 9 10 11 12 12 13 12 12 12 12 12 12 13 13 13 13 13 13 13 13 13 13 14 13 12 12 12 12 12 11 11 11 11 12 12 12 12 12 12 12 12 12 12 13 13 14 15 16 18
14 13 13 12 12 12 12 12 11 11 10 9 9 8 7 7 7 6 6 6 6 6 6 6 6 6 7 7 7 7 7 8 8 8 8 9 10 11 12 12 12 12 12 12 12 12 12 12 13 13 13 13 13 13 13 13 13 13 13 13 13 12 12 13 13 12 12 12 12 12 12 12 13 12 12 13 13 13 13 13 13 14 15 15 17
15 14 13 13 12 12 12 12 12 11 10 10 9 8 7 6 6 6 6 5 5 5 5 6 6 6 6 6 7 7 7 7 8 8 9 10 11 12 12 12 12 12 12 12 12 12 12 13 13 13 13 13 13 13 13 13 13 13 13 13 13 12 12 13 13 12 12 12 12 13 13 13 13 13 13 13 13 14 14 14 14 14 15 15 16
16 15 14 14 13 13 12 12 12 11 11 10 10 9 8 7 7 6 6 5 5 5 5 6 6 6 6 6 6 7 7 7 8 9 10 10 11 11 12 12 12 12 12 12 12 12 13 13 13 13 13 13 13 13 13 13 13 13 13 13 13 13 13 14 13 13 14 13 13 14 14 14 14 14 14 14 14 14 14 14 15 15 15 16 16
17 16 15 14 14 13 13 13 12 12 11 11 10 9 9 8 8 7 7 7 7 7 7 7 7 7 7 6 7 7 7 7 8 9 9 10 11 11 11 11 11 11 11 11 12 12 12 13 13 13 13 13 13 13 13 13 13 13 13 13 13 13 13 13 13 14 15 15 15 15 15 15 15 15 15 15 15 14 14 15 15 15 16 16 17
17 16 15 15 15 14 14 13 13 12 12 11 11 10 10 9 9 9 9 9 9 9 8 8 8 8 7 7 7 7 8 8 8 9 10 10 10 10 10 10 10 10 11 11 11 12 12 13 13 13 13 13 13 14 14 14 14 13 13 13 13 13 13 13 14 14 14 15 16 15 16 16 16 15 16 16 16 16 15 15 15 16 16 17 17
18 17 16 16 15 15 15 14 14 13 12 12 11 11 11 10 10 10 10 10 10 10 10 9 9 9 8 8 8 8 8 8 9 9 10 10 10 9 9 9 10 10 10 11 11 11 12 12 12 12 13 13 14 14 14 14 14 13 13 13 13 13 13 14 14 14 14 15 16 16 17 18 17 17 16 16 17 17 16 17 17 17 17 17 18
19 18 17 17 16 16 16 15 15 14 13 13 12 12 11 11 11 11 11 11 11 10 10 10 10 10 9 8 8 9 9 9 10 10 10 10 10 10 10 10 9 10 10 10 11 11 11 12 12 12 12 13 13 14 14 14 14 14 14 14 14 14 14 14 15 15 15 15 16 17 18 18 18 18 18 17 18 18 18 18 18 19 19 19 19
19 19 18 18 17 17 17 16 16 15 14 14 13 13 12 12 12 12 12 12 12 11 11 11 11 10 10 10 10 10 10 10 10 10 10 10 10 10 10 10 10 10 10 10 11 11 11 11 11 12 12 12 13 13 14 14 14 14 15 15 16 16 16 16 16 16 16 16 17 18 19 19 19 19 19 19 19 19 19 20 20 20 21 21 21
Wind_Direction
124 127 129 130 130 130 130 129 128 127 127 126 124 124 123 122 123 120 117 119 120 117 117 118 120 122 123 123 122 122 122 120 119 117 114 110 106 102 97 93 88 82 77 73 70 68 68 65 65 66 66 66 63 58 55 55 53 52 55 61 69 71 70 70 70 68 65 64 63 64 67 67 68 68 69 70 71 74 79 84 89 98 107 112 115
126 127 130 130 129 129 128 127 126 126 127 128 125 124 124 123 124 121 120 122 121 119 118 118 120 122 123 124 123 122 121 120 118 116 113 108 105 101 97 92 85 80 76 72 68 67 66 64 64 63 63 63 61 57 55 54 51 51 54 60 69 72 71 73 74 71 67 64 64 64 66 64 63 65 66 68 72 74 78 84 88 96 106 112 115
128 128 129 130 130 129 127 125 124 126 126 128 126 125 125 123 123 121 122 123 121 120 119 120 122 124 124 124 123 122 120 119 117 115 113 109 106 102 98 92 85 81 77 72 68 67 67 65 63 60 58 58 58 56 54 52 49 49 52 58 66 70 73 76 78 75 70 65 64 63 63 62 60 64 66 66 70 74 79 84 89 96 106 113 117
130 129 129 129 130 129 128 126 124 125 124 126 127 126 125 123 122 121 123 123 121 121 120 121 123 124 124 123 122 121 120 118 116 115 113 111 108 104 98 92 85 81 76 71 68 68 67 64 60 55 53 52 54 53 52 49 47 49 50 54 60 66 73 79 83 81 75 68 65 64 64 63 60 62 66 66 69 74 78 82 90 99 107 113 117
131 131 130 129 129 128 129 129 125 123 123 125 128 127 125 122 123 124 125 124 122 121 121 122 123 125 124 122 121 120 118 117 117 116 115 113 109 103 97 91 85 80 74 69 66 66 64 60 55 50 47 46 49 50 50 46 43 45 47 49 52 59 69 79 86 88 82 74 69 66 65 64 61 61 67 70 70 74 79 83 91 101 107 113 117
132 132 132 129 129 128 129 129 124 122 122 124 127 127 124 123 124 126 127 126 124 123 122 122 123 125 124 123 122 120 118 118 118 117 116 113 108 102 95 89 84 79 73 68 65 62 58 54 51 45 42 41 44 47 47 43 38 38 41 44 46 50 60 77 91 95 90 82 74 69 67 64 61 61 66 73 73 75 82 87 93 101 108 112 116
134 134 132 131 129 127 128 127 124 123 122 123 125 124 123 123 125 127 128 128 126 125 124 124 124 125 125 124 123 122 121 120 119 117 116 112 107 101 94 88 82 76 71 67 63 58 51 47 44 39 39 38 38 41 40 36 34 32 33 41 45 46 52 67 94 107 98 89 81 72 67 64 62 61 64 72 77 79 84 92 97 102 109 113 116
134 134 133 130 127 127 128 127 125 126 123 121 123 123 124 125 125 126 127 128 128 127 126 126 127 127 126 125 125 125 124 122 120 118 115 111 106 100 94 86 77 70 65 62 58 53 46 41 36 33 35 36 33 32 28 25 27 25 26 38 41 40 48 59 86 117 110 100 91 76 68 65 62 62 64 70 80 85 90 97 102 105 109 114 118
133 134 133 130 126 127 128 127 126 127 125 121 122 123 125 125 125 125 126 128 128 129 129 129 129 128 128 128 128 128 126 124 121 117 114 112 108 102 94 83 71 63 57 51 47 43 37 33 28 26 28 30 29 27 23 16 16 17 17 24 30 28 33 52 83 110 116 113 106 85 71 68 64 62 65 70 82 91 97 103 106 108 111 116 119
132 133 133 131 128 128 128 128 126 125 124 122 123 124 125 125 125 126 127 128 129 130 131 130 130 130 130 130 130 128 126 124 122 120 118 116 111 104 92 79 67 58 48 37 31 27 24 22 20 18 19 21 24 23 21 14 9 10 10 12 19 19 19 33 80 108 109 113 115 99 80 73 66 62 66 71 81 93 102 109 112 113 113 117 121
132 131 131 132 130 128 127 127 126 125 123 122 123 125 125 124 126 128 128 130 130 131 131 131 130 130 129 129 128 127 126 125 125 123 121 118 111 103 89 74 63 52 38 25 15 10 9 9 8 8 9 14 18 16 16 15 7 5 7 6 8 14 19 25 64 105 103 102 115 119 94 73 65 62 67 73 81 92 105 115 120 120 119 121 124
132 132 130 131 131 129 128 126 125 124 123 123 124 127 127 125 126 128 129 130 130 130 129 128 128 128 128 128 129 128 127 126 126 122 117 112 104 96 83 65 47 31 18 9 1 358 357 355 354 355 357 3 9 9 10 12 10 5 4 3 3 12 21 25 50 91 92 87 101 132 115 74 64 60 66 76 80 90 107 119 125 127 127 127 128
133 133 131 131 131 130 129 126 125 124 124 124 125 127 127 127 127 127 127 128 128 127 126 127 128 128 128 128 129 129 128 126 122 117 110 102 96 87 70 49 25 9 359 353 349 348 347 347 345 343 344 351 357 357 360 5 9 7 4 2 3 10 11 22 49 68 59 64 82 147 147 94 69 59 65 80 83 90 108 120 126 130 132 134 134
134 134 132 132 131 130 129 128 127 127 126 124 125 127 127 127 126 126 126 127 127 126 126 127 128 128 127 126 126 126 123 120 117 111 104 98 91 75 52 31 14 1 351 344 340 339 340 341 339 336 334 338 344 343 346 350 359 8 8 3 359 3 358 2 39 33 12 42 69 156 188 178 93 62 66 85 91 93 111 123 128 133 136 140 140
136 135 133 133 133 133 132 131 130 129 129 127 127 127 127 126 126 127 127 128 129 128 128 127 128 127 127 125 122 122 120 117 114 109 99 95 85 60 29 11 1 354 346 340 336 335 335 336 338 338 333 332 336 333 332 335 348 3 0 357 354 349 340 326 318 353 356 5 51 166 202 209 200 91 76 98 106 103 114 127 133 136 140 144 146
139 137 135 135 135 136 136 136 134 133 133 132 130 129 128 128 128 129 130 131 130 129 127 126 126 127 127 125 123 122 121 117 110 105 95 87 70 31 3 357 350 347 344 339 336 334 333 331 332 338 340 334 331 329 326 327 336 351 349 346 345 331 322 304 284 307 346 322 280 226 233 235 226 220 166 133 130 126 127 133 139 142 145 147 150
143 141 139 137 137 137 137 139 140 138 138 135 132 132 132 132 131 131 131 132 131 129 127 125 124 124 125 124 123 122 121 116 106 97 86 66 38 6 354 353 347 345 342 339 336 333 327 320 326 341 345 338 330 328 326 323 324 336 347 339 329 319 315 303 287 283 270 291 279 246 249 242 226 224 212 175 160 156 149 145 147 148 151 152 153
147 146 144 142 141 139 137 139 141 140 139 138 136 135 134 134 134 134 133 132 131 130 129 125 122 121 123 123 121 121 119 116 105 88 68 42 21 4 355 350 346 345 342 339 333 329 323 320 335 345 339 334 330 329 327 323 322 330 344 339 323 316 312 304 294 287 277 278 280 259 249 234 221 220 218 202 188 182 173 163 158 156 156 157 158
151 151 150 146 145 142 141 141 141 141 140 139 139 138 136 137 137 137 135 133 133 133 131 127 123 120 122 124 121 120 119 116 102 76 53 26 8 357 348 340 342 345 344 343 338 332 327 331 346 345 333 332 331 332 330 328 328 331 340 340 325 317 311 305 297 290 288 289 287 273 251 234 224 221 220 215 207 200 193 183 175 169 166 164 164
156 157 155 150 148 146 146 145 144 144 143 140 140 141 140 141 139 138 136 134 135 136 136 131 127 123 123 125 123 121 114 105 86 57 23 358 349 343 337 334 336 340 342 342 341 337 333 340 352 345 336 335 332 334 333 333 334 334 338 338 327 317 312 309 302 292 287 286 282 275 258 239 229 225 222 220 217 211 207 201 192 185 179 174 172
159 160 156 152 152 150 149 148 149 149 145 142 142 140 140 142 141 142 139 137 138 138 139 136 131 126 124 124 120 117 106 92 67 31 346 338 338 336 332 330 330 332 335 337 340 338 336 343 352 344 337 334 332 333 331 331 331 330 333 333 328 318 313 312 308 297 287 282 275 269 261 245 233 228 226 224 222 218 215 213 207 200 194 188 183
159 159 157 155 154 152 151 150 152 151 147 145 144 141 140 142 142 145 145 143 142 141 144 141 137 130 128 129 123 115 102 84 44 7 340 337 338 336 331 328 327 328 331 334 339 340 339 343 349 349 346 344 344 341 335 330 326 326 326 324 322 315 310 309 308 301 290 283 275 267 261 251 239 231 229 227 226 224 222 220 217 212 206 201 196
161 160 158 157 155 153 153 153 152 150 147 147 147 147 147 145 145 148 148 147 145 146 150 148 148 145 143 142 134 125 109 62 6 350 340 340 339 337 334 330 329 330 333 336 341 344 346 347 350 351 349 348 348 344 339 334 331 330 325 319 315 309 306 304 303 298 291 285 277 269 262 254 245 236 233 231 229 227 226 225 223 220 216 211 207
164 163 160 159 158 155 155 154 153 151 149 149 151 152 153 151 150 151 150 150 149 150 151 151 158 163 162 165 160 154 149 346 342 342 340 340 339 337 334 333 332 333 335 337 340 345 349 351 352 351 348 345 343 341 339 338 336 332 327 321 315 309 305 301 298 293 288 284 279 273 265 256 249 242 237 235 232 229 228 228 228 226 223 219 215
165 165 164 161 160 158 157 156 155 154 153 154 155 156 155 154 154 155 154 153 154 156 156 160 170 180 186 192 197 211 260 316 329 334 337 337 337 336 334 333 333 336 338 340 342 344 346 348 349 349 347 344 340 339 337 336 333 330 326 321 316 312 309 304 299 292 286 282 278 275 269 259 250 245 241 238 235 233 231 231 230 229 227 224 221
167 167 167 165 164 162 162 161 158 158 159 161 161 162 160 158 160 162 162 160 163 167 172 182 186 194 204 216 228 249 283 310 322 327 332 335 336 335 334 335 336 338 341 344 345 345 343 342 342 341 340 338 337 337 335 332 328 325 322 317 313 310 309 308 302 294 287 282 277 273 270 263 253 248 244 240 237 236 235 234 232 230 229 228 225
169 170 169 168 168 168 168 165 164 164 164 166 167 168 168 167 169 171 171 172 177 181 186 194 196 201 211 227 241 260 286 308 318 322 327 333 337 336 336 336 337 339 341 344 344 343 341 337 334 331 330 331 331 333 333 330 326 323 319 316 313 309 307 306 303 297 289 282 277 272 268 264 258 251 247 243 239 238 238 236 234 232 231 230 228
171 172 172 172 173 173 173 171 170 171 170 170 171 172 175 176 180 185 186 188 192 197 202 205 208 215 218 228 243 262 281 304 316 319 322 328 334 337 338 337 337 338 340 342 342 341 339 334 329 325 324 324 324 325 326 326 324 321 317 315 314 311 308 304 301 298 292 284 277 271 266 263 260 255 249 245 241 239 238 237 235 234 233 232 231
172 174 174 175 176 177 177 178 178 177 175 176 177 179 182 186 193 199 202 205 209 213 218 220 222 229 232 235 246 264 277 300 316 319 322 326 330 335 338 337 337 337 338 339 340 338 335 332 328 325 322 321 320 320 320 320 321 320 316 313 312 311 309 306 302 297 292 285 278 271 266 263 261 258 252 247 244 241 239 238 236 236 235 235 234
174 175 176 178 179 180 182 184 185 184 184 185 188 191 195 199 204 210 213 216 220 222 225 228 231 236 241 244 255 269 278 291 306 314 321 325 327 331 334 335 335 335 335 336 337 335 333 332 330 328 326 322 320 319 320 320 320 319 315 312 310 310 310 308 304 298 292 285 278 272 267 263 262 260 256 250 245 242 241 239 238 237 238 237 236
176 177 179 182 183 184 187 190 191 192 193 195 200 203 207 211 215 217 217 220 224 225 227 231 234 239 246 254 266 275 280 286 295 306 315 322 325 328 329 330 332 332 331 332 332 331 330 331 331 332 331 327 325 323 323 322 321 319 316 313 310 309 310 308 306 301 295 287 279 274 268 265 262 260 258 254 249 245 243 241 240 240 240 239 238
180 182 185 186 187 190 193 195 197 199 202 206 210 213 216 219 222 222 220 221 223 225 230 236 240 245 252 261 270 274 280 285 292 299 306 315 319 323 324 325 327 328 327 328 328 328 328 329 330 332 332 329 328 327 326 325 324 323 320 318 314 312 311 308 305 301 297 291 283 277 271 266 263 260 258 257 255 250 247 245 244 242 241 241 241
187 189 191 190 191 195 197 198 201 205 209 214 217 220 222 224 225 224 223 223 225 229 234 239 244 250 256 263 270 273 278 284 291 297 300 306 310 315 320 321 322 323 323 324 325 325 325 327 329 330 330 329 329 329 329 330 330 330 329 326 323 318 314 309 305 300 296 292 287 282 276 271 265 262 259 259 259 254 251 248 245 243 243 243 245
193 195 195 194 194 196 198 201 205 210 215 219 222 225 227 229 229 226 224 225 227 233 237 241 247 253 258 264 270 273 277 283 288 294 298 301 304 309 315 318 318 318 320 321 321 322 323 325 326 327 327 328 329 331 333 334 335 335 334 332 329 325 320 315 310 305 298 293 289 286 282 276 270 265 261 260 260 256 253 250 247 247 246 246 246
196 196 197 197 197 198 200 204 208 213 218 221 224 227 230 231 232 228 226 227 230 236 241 247 252 256 260 265 268 270 276 281 286 292 295 298 302 306 310 315 316 316 316 315 316 318 319 321 323 324 325 328 330 333 335 335 334 334 334 334 332 329 326 323 319 313 307 299 293 288 285 282 276 271 265 263 260 255 253 253 250 249 248 248 247
198 199 201 201 201 203 204 207 210 214 217 220 224 227 229 231 233 231 229 231 235 241 246 251 256 259 264 267 268 270 275 283 288 290 292 294 297 302 308 311 312 312 312 311 312 315 316 317 321 323 324 326 329 330 332 330 330 332 333 333 332 330 329 327 325 322 317 310 303 296 290 286 281 276 270 266 263 256 252 252 251 251 250 250 248
203 203 204 205 206 208 209 210 212 215 218 220 224 228 229 230 233 235 236 238 241 245 250 254 257 263 268 270 271 272 276 285 290 290 290 292 294 298 305 307 307 309 309 309 312 313 314 316 319 322 322 323 324 325 326 326 327 330 330 331 331 330 329 328 326 325 324 321 317 310 302 294 287 281 275 270 266 261 254 251 252 253 252 251 250
206 207 209 210 211 210 210 213 216 219 222 224 227 231 231 231 234 238 242 245 247 250 255 257 259 266 268 269 273 275 278 285 289 288 289 290 292 295 299 302 305 308 309 310 311 311 312 315 316 319 320 320 321 323 323 323 325 327 328 328 329 329 327 326 326 325 325 326 326 323 317 308 298 288 282 275 270 266 260 254 252 255 254 254 254
209 211 213 214 213 212 214 218 221 223 225 227 228 231 233 233 235 241 246 249 251 254 258 259 263 268 267 267 273 277 280 284 284 283 286 289 291 293 296 300 304 309 311 311 312 311 310 311 313 315 316 316 318 321 321 321 323 325 326 326 325 326 324 325 327 325 324 324 325 326 325 322 313 301 291 283 276 271 266 260 256 256 257 257 255
213 214 214 214 214 215 218 222 224 225 226 227 228 231 234 234 237 243 248 251 252 256 261 264 267 271 270 270 274 277 279 280 281 282 285 288 291 293 296 302 306 308 309 310 311 311 309 308 310 312 313 314 316 319 321 320 322 323 324 324 323 322 321 323 327 325 323 323 322 323 324 325 323 316 306 295 287 279 272 267 262 260 260 259 257
215 215 214 214 216 218 220 222 224 224 225 226 227 230 232 232 235 241 247 251 254 259 265 269 271 273 274 275 276 276 277 279 283 285 287 289 292 295 299 303 305 305 305 306 308 307 305 306 308 309 310 313 315 318 320 320 320 321 323 323 322 321 318 321 326 324 321 321 319 318 319 321 321 320 316 308 299 290 281 274 269 265 263 261 260
215 215 215 216 218 219 221 222 222 222 223 224 225 228 230 233 237 243 250 255 259 262 267 271 274 276 276 276 276 276 278 282 287 289 290 292 294 298 301 303 304 303 302 303 304 304 302 304 307 308 310 312 314 317 319 318 319 320 320 321 320 320 317 319 324 323 320 319 318 318 318 318 318 317 315 311 305 299 291 284 277 272 268 264 263
215 216 217 217 218 218 219 220 220 221 220 220 221 225 229 235 242 249 254 258 263 266 269 272 273 275 276 276 276 278 281 285 290 294 296 297 298 301 302 304 304 304 303 303 304 304 305 306 307 309 311 313 315 317 318 317 317 318 319 318 317 317 314 316 321 320 320 321 319 319 318 317 316 314 312 309 306 302 297 292 285 280 275 270 267
216 217 217 216 217 217 218 218 218 219 218 217 218 223 229 235 242 249 253 257 263 266 270 272 270 270 273 275 277 279 283 287 291 295 299 301 302 303 304 305 305 306 306 306 306 306 307 308 309 310 311 313 316 318 319 317 317 318 318 316 315 314 312 314 317 314 316 319 319 319 318 316 315 312 310 307 305 302 299 296 291 285 280 275 271
217 217 217 217 218 219 218 219 219 219 218 218 219 223 228 233 237 242 247 254 259 263 269 271 270 271 274 277 279 282 286 289 292 296 299 302 303 304 305 306 307 308 309 309 309 308 308 309 310 310 311 313 315 318 318 317 317 316 316 314 313 312 310 313 314 310 311 314 315 316 315 314 313 311 309 307 305 302 299 297 295 290 286 281 277
218 218 219 219 219 220 219 219 220 221 222 223 223 226 230 232 232 234 239 248 255 261 269 274 274 277 281 283 283 284 287 290 292 295 298 302 304 305 306 308 310 310 310 311 310 309 308 309 310 311 312 312 314 316 317 317 317 315 313 313 311 310 309 310 310 308 309 309 311 313 313 312 311 308 308 306 304 302 299 297 296 294 291 287 282
220 220 220 220 220 220 220 220 221 223 226 227 229 232 235 236 235 238 243 249 256 263 270 276 278 280 283 285 286 286 288 291 294 297 300 303 305 306 308 311 313 314 313 312 310 309 309 310 311 312 313 313 314 315 315 316 316 314 313 312 310 309 309 308 307 306 307 307 308 309 310 311 309 306 306 305 303 301 300 298 296 295 294 291 287
222 221 220 221 221 221 220 221 223 226 230 232 234 237 239 240 240 244 248 252 258 264 270 275 279 282 283 285 288 288 290 293 298 302 304 305 306 307 310 313 315 315 313 312 310 310 310 311 311 312 313 313 313 314 315 315 316 315 314 313 312 311 310 308 307 305 304 304 305 306 307 309 308 306 304 303 301 299 298 298 297 296 295 293 291
223 222 222 223 223 222 223 224 226 229 233 235 238 241 244 245 245 247 251 256 261 267 271 274 277 281 285 287 289 290 293 296 300 304 307 308 308 309 312 315 316 314 313 312 311 311 311 310 311 312 313 314 313 314 315 316 316 315 316 315 314 312 310 308 308 307 306 305 304 304 306 307 307 306 304 302 301 298 296 296 296 296 295 294 293
225 225 225 225 225 225 225 227 229 232 235 238 241 244 246 247 248 250 254 259 264 268 271 273 273 277 281 285 288 291 294 297 301 306 309 309 309 310 314 316 316 316 315 314 313 313 312 311 311 312 313 314 314 314 315 316 316 316 316 317 315 313 310 308 308 308 308 307 306 305 305 305 304 304 303 301 300 297 295 294 295 295 295 293 292
226 226 227 226 226 227 228 229 232 234 237 239 242 245 248 249 251 253 256 260 264 266 269 271 270 272 275 279 284 288 292 297 300 304 306 308 310 311 313 315 315 316 317 316 315 314 313 312 311 312 313 314 314 314 315 315 315 314 315 315 315 314 311 308 307 307 307 306 306 306 304 303 300 299 300 300 299 296 293 292 292 293 294 293 291